| time (UTC) | temp C | wind direction | speed KPH | gust KPH | rain 1hr cm | rain 24hr cm | rain mn cm | humidity % | barometer mb |
| 20260505194705 | 28 | 242 | 6.4 | 14.5 | 0.00 | 0.00 | 0.00 | 34 | 1006.6 |
| 20260505194205 | 28 | 278 | 9.7 | 27.4 | 0.00 | 0.00 | 0.00 | 32 | 1006.7 |
| 20260505193705 | 28 | 196 | 4.8 | 12.9 | 0.00 | 0.00 | 0.00 | 37 | 1006.6 |
| 20260505193204 | 28 | 218 | 3.2 | 8.0 | 0.00 | 0.00 | 0.00 | 39 | 1006.6 |
| 20260505192705 | 28 | 233 | 4.8 | 14.5 | 0.00 | 0.00 | 0.00 | 36 | 1006.6 |
| 20260505192205 | 28 | 217 | 4.8 | 14.5 | 0.00 | 0.00 | 0.00 | 35 | 1006.7 |
| 20260505191705 | 28 | 199 | 4.8 | 19.3 | 0.00 | 0.00 | 0.00 | 39 | 1006.8 |
| 20260505191204 | 28 | 204 | 8.0 | 19.3 | 0.00 | 0.00 | 0.00 | 36 | 1006.9 |
| 20260505190705 | 28 | 205 | 9.7 | 19.3 | 0.00 | 0.00 | 0.00 | 38 | 1006.9 |
| 20260505190205 | 28 | 211 | 3.2 | 12.9 | 0.00 | 0.00 | 0.00 | 38 | 1007.0 |
| 20260505185705 | 28 | 183 | 4.8 | 14.5 | 0.00 | 0.00 | 0.00 | 37 | 1007.0 |
| 20260505185205 | 27 | 184 | 9.7 | 20.9 | 0.00 | 0.00 | 0.00 | 38 | 1007.1 |
| 20260505184705 | 28 | 186 | 9.7 | 22.5 | 0.00 | 0.00 | 0.00 | 36 | 1007.2 |
| 20260505184205 | 28 | 189 | 6.4 | 14.5 | 0.00 | 0.00 | 0.00 | 33 | 1007.3 |
| 20260505183704 | 28 | 273 | 3.2 | 19.3 | 0.00 | 0.00 | 0.00 | 37 | 1007.3 |
| 20260505183205 | 28 | 268 | 4.8 | 11.3 | 0.00 | 0.00 | 0.00 | 37 | 1007.5 |
| 20260505181704 | 28 | 210 | 3.2 | 20.9 | 0.00 | 0.00 | 0.00 | 36 | 1007.6 |
| 20260505181205 | 28 | 209 | 8.0 | 20.9 | 0.00 | 0.00 | 0.00 | 36 | 1007.7 |
| 20260505180205 | 28 | 198 | 9.7 | 25.7 | 0.00 | 0.00 | 0.00 | 35 | 1007.7 |
| 20260505175205 | 28 | 211 | 4.8 | 12.9 | 0.00 | 0.00 | 0.00 | 38 | 1007.7 |
| 20260505174705 | 28 | 199 | 6.4 | 19.3 | 0.00 | 0.00 | 0.00 | 36 | 1008.0 |
| 20260505174205 | 28 | 239 | 9.7 | 20.9 | 0.00 | 0.00 | 0.00 | 36 | 1008.0 |
| 20260505173204 | 28 | 262 | 4.8 | 16.1 | 0.00 | 0.00 | 0.00 | 35 | 1007.8 |
| 20260505172704 | 28 | 201 | 8.0 | 16.1 | 0.00 | 0.00 | 0.00 | 37 | 1007.9 |
| 20260505172205 | 27 | 185 | 3.2 | 11.3 | 0.00 | 0.00 | 0.00 | 38 | 1008.0 |
| 20260505171705 | 27 | 189 | 11.3 | 24.1 | 0.00 | 0.00 | 0.00 | 36 | 1008.0 |
| 20260505170705 | 27 | 209 | 4.8 | 19.3 | 0.00 | 0.00 | 0.00 | 39 | 1008.1 |
| 20260505170205 | 26 | 242 | 8.0 | 22.5 | 0.00 | 0.00 | 0.00 | 40 | 1008.4 |
| 20260505164704 | 26 | 257 | 4.8 | 12.9 | 0.00 | 0.00 | 0.00 | 44 | 1008.7 |
| 20260505164204 | 26 | 206 | 4.8 | 19.3 | 0.00 | 0.00 | 0.00 | 41 | 1008.8 |
| 20260505163704 | 27 | 217 | 4.8 | 32.2 | 0.00 | 0.00 | 0.00 | 42 | 1008.9 |
| 20260505163205 | 27 | 227 | 8.0 | 19.3 | 0.00 | 0.00 | 0.00 | 40 | 1009.2 |
| 20260505162704 | 27 | 208 | 9.7 | 24.1 | 0.00 | 0.00 | 0.00 | 40 | 1009.1 |
| 20260505162204 | 27 | 235 | 6.4 | 19.3 | 0.00 | 0.00 | 0.00 | 44 | 1009.2 |
| 20260505161704 | 27 | 268 | 8.0 | 19.3 | 0.00 | 0.00 | 0.00 | 41 | 1009.2 |
| 20260505161204 | 26 | 219 | 6.4 | 19.3 | 0.00 | 0.00 | 0.00 | 42 | 1009.2 |
| 20260505160704 | 26 | 220 | 9.7 | 19.3 | 0.00 | 0.00 | 0.00 | 41 | 1009.3 |
| 20260505160204 | 26 | 221 | 8.0 | 20.9 | 0.00 | 0.00 | 0.00 | 43 | 1009.3 |
| 20260505153204 | 26 | 283 | 4.8 | 19.3 | 0.00 | 0.00 | 0.00 | 46 | 1009.3 |
| 20260505152704 | 25 | 217 | 3.2 | 12.9 | 0.00 | 0.00 | 0.00 | 47 | 1009.3 |
| 20260505152204 | 25 | 295 | 4.8 | 14.5 | 0.00 | 0.00 | 0.00 | 44 | 1009.3 |
| 20260505151704 | 25 | 290 | 4.8 | 12.9 | 0.00 | 0.00 | 0.00 | 46 | 1009.5 |
| 20260505151204 | 25 | 263 | 8.0 | 19.3 | 0.00 | 0.00 | 0.00 | 48 | 1009.4 |
| 20260505150704 | 25 | 194 | 4.8 | 14.5 | 0.00 | 0.00 | 0.00 | 46 | 1009.4 |
| 20260505150215 | 25 | 194 | 4.8 | 11.3 | 0.00 | 0.00 | 0.00 | 50 | 1009.5 |
| 20260505140205 | 21 | 176 | 3.2 | 4.8 | 0.00 | 0.00 | 0.00 | 57 | 1010.0 |
| 20260505130204 | 18 | 172 | 3.2 | 11.3 | 0.00 | 0.00 | 0.00 | 63 | 1010.4 |
| 20260505124707 | 17 | 199 | 1.6 | 4.8 | 0.00 | 0.00 | 0.00 | 65 | 1010.5 |
| 20260505124205 | 17 | 182 | 1.6 | 4.8 | 0.00 | 0.00 | 0.00 | 66 | 1010.5 |
| 20260505123205 | 16 | 155 | 1.6 | 4.8 | 0.00 | 0.00 | 0.00 | 67 | 1010.6 |
| 20260505122704 | 16 | 175 | 1.6 | 4.8 | 0.00 | 0.00 | 0.00 | 69 | 1010.6 |
| 20260505122205 | 16 | 148 | 1.6 | 4.8 | 0.00 | 0.00 | 0.00 | 70 | 1010.6 |
| 20260505121705 | 15 | 148 | 1.6 | 3.2 | 0.00 | 0.00 | 0.00 | 70 | 1010.7 |
| 20260505121205 | 15 | 213 | 1.6 | 3.2 | 0.00 | 0.00 | 0.00 | 72 | 1010.6 |
| 20260505120205 | 15 | 355 | 0.0 | 0.0 | 0.00 | 0.00 | 0.00 | 75 | 1010.6 |
| 20260505115707 | 14 | 355 | 0.0 | 0.0 | 0.00 | 0.00 | 0.00 | 80 | 1010.5 |
| 20260505115205 | 13 | 355 | 0.0 | 0.0 | 0.00 | 0.00 | 0.00 | 80 | 1010.4 |
| 20260505114705 | 13 | 355 | 0.0 | 0.0 | 0.00 | 0.00 | 0.00 | 82 | 1010.4 |
| 20260505114205 | 13 | 355 | 0.0 | 0.0 | 0.00 | 0.00 | 0.00 | 82 | 1010.4 |
| 20260505113705 | 13 | 355 | 0.0 | 1.6 | 0.00 | 0.00 | 0.00 | 82 | 1010.3 |
| 20260505113205 | 13 | 355 | 0.0 | 0.0 | 0.00 | 0.00 | 0.00 | 82 | 1010.3 |
| 20260505112705 | 13 | 355 | 0.0 | 3.2 | 0.00 | 0.00 | 0.00 | 81 | 1010.3 |
| 20260505112206 | 13 | 355 | 0.0 | 3.2 | 0.00 | 0.00 | 0.00 | 80 | 1010.3 |
| 20260505111704 | 13 | 355 | 1.6 | 3.2 | 0.00 | 0.00 | 0.00 | 82 | 1010.1 |
| 20260505111205 | 13 | 355 | 0.0 | 0.0 | 0.00 | 0.00 | 0.00 | 83 | 1010.0 |
| 20260505110705 | 12 | 355 | 0.0 | 0.0 | 0.00 | 0.00 | 0.00 | 85 | 1010.0 |
| 20260505102205 | 11 | 355 | 0.0 | 0.0 | 0.00 | 0.00 | 0.00 | 87 | 1009.9 |
| 20260505101705 | 10 | 355 | 0.0 | 0.0 | 0.00 | 0.00 | 0.00 | 87 | 1009.9 |
| 20260505101205 | 10 | 355 | 0.0 | 0.0 | 0.00 | 0.00 | 0.00 | 87 | 1009.9 |
| 20260505100705 | 10 | 355 | 0.0 | 0.0 | 0.00 | 0.00 | 0.00 | 86 | 1009.8 |
| 20260505100205 | 10 | 355 | 0.0 | 0.0 | 0.00 | 0.00 | 0.00 | 85 | 1009.7 |
| 20260505095704 | 10 | 355 | 0.0 | 0.0 | 0.00 | 0.00 | 0.00 | 85 | 1009.5 |
| 20260505095205 | 10 | 355 | 0.0 | 0.0 | 0.00 | 0.00 | 0.00 | 85 | 1009.5 |
| 20260505094704 | 10 | 355 | 0.0 | 0.0 | 0.00 | 0.00 | 0.00 | 84 | 1009.5 |
| 20260505094204 | 11 | 355 | 0.0 | 0.0 | 0.00 | 0.00 | 0.00 | 85 | 1009.4 |
| 20260505092705 | 11 | 355 | 0.0 | 0.0 | 0.00 | 0.00 | 0.00 | 84 | 1009.2 |
| 20260505092204 | 11 | 355 | 0.0 | 0.0 | 0.00 | 0.00 | 0.00 | 84 | 1009.3 |
| 20260505090705 | 11 | 355 | 0.0 | 0.0 | 0.00 | 0.00 | 0.00 | 84 | 1009.3 |
| 20260505090205 | 11 | 355 | 0.0 | 0.0 | 0.00 | 0.00 | 0.00 | 82 | 1009.3 |
| 20260505085704 | 11 | 355 | 0.0 | 0.0 | 0.00 | 0.00 | 0.00 | 81 | 1009.4 |
| 20260505085205 | 11 | 355 | 0.0 | 0.0 | 0.00 | 0.00 | 0.00 | 82 | 1009.4 |
| 20260505084704 | 11 | 355 | 0.0 | 0.0 | 0.00 | 0.00 | 0.00 | 82 | 1009.4 |
| 20260505084205 | 11 | 355 | 0.0 | 0.0 | 0.00 | 0.00 | 0.00 | 82 | 1009.4 |
| 20260505083205 | 11 | 355 | 0.0 | 0.0 | 0.00 | 0.00 | 0.00 | 82 | 1009.3 |
| 20260505082705 | 11 | 355 | 0.0 | 0.0 | 0.00 | 0.00 | 0.00 | 81 | 1009.2 |
| 20260505081705 | 12 | 355 | 0.0 | 0.0 | 0.00 | 0.00 | 0.00 | 80 | 1009.2 |
| 20260505080205 | 12 | 355 | 0.0 | 0.0 | 0.00 | 0.00 | 0.00 | 79 | 1009.1 |
| 20260505075705 | 12 | 355 | 0.0 | 0.0 | 0.00 | 0.00 | 0.00 | 79 | 1009.1 |
| 20260505075205 | 12 | 355 | 0.0 | 0.0 | 0.00 | 0.00 | 0.00 | 78 | 1009.1 |
| 20260505074705 | 12 | 355 | 0.0 | 0.0 | 0.00 | 0.00 | 0.00 | 78 | 1009.1 |
| 20260505073704 | 12 | 355 | 0.0 | 0.0 | 0.00 | 0.00 | 0.00 | 77 | 1009.1 |
| 20260505073204 | 12 | 355 | 0.0 | 0.0 | 0.00 | 0.00 | 0.00 | 77 | 1009.0 |
| 20260505072205 | 12 | 355 | 0.0 | 0.0 | 0.00 | 0.00 | 0.00 | 76 | 1008.9 |
| 20260505071704 | 12 | 355 | 0.0 | 0.0 | 0.00 | 0.00 | 0.00 | 76 | 1008.9 |
| 20260505071204 | 13 | 355 | 0.0 | 0.0 | 0.00 | 0.00 | 0.00 | 76 | 1008.9 |
| 20260505070705 | 12 | 355 | 0.0 | 0.0 | 0.00 | 0.00 | 0.00 | 76 | 1008.9 |
| 20260505070205 | 13 | 355 | 0.0 | 0.0 | 0.00 | 0.00 | 0.00 | 75 | 1008.9 |
| 20260505065705 | 13 | 355 | 0.0 | 0.0 | 0.00 | 0.00 | 0.00 | 75 | 1008.9 |
| 20260505065207 | 13 | 355 | 0.0 | 0.0 | 0.00 | 0.00 | 0.00 | 75 | 1008.9 |
| 20260505064704 | 13 | 355 | 0.0 | 0.0 | 0.00 | 0.00 | 0.00 | 75 | 1009.0 |
| 20260505064205 | 13 | 355 | 0.0 | 0.0 | 0.00 | 0.00 | 0.00 | 77 | 1009.1 |
| 20260505063705 | 13 | 355 | 0.0 | 0.0 | 0.00 | 0.00 | 0.00 | 76 | 1009.1 |
| 20260505063204 | 13 | 355 | 0.0 | 0.0 | 0.00 | 0.00 | 0.00 | 75 | 1009.0 |
| 20260505062204 | 13 | 355 | 0.0 | 0.0 | 0.00 | 0.00 | 0.00 | 74 | 1009.1 |
| 20260505061704 | 13 | 355 | 0.0 | 0.0 | 0.00 | 0.00 | 0.00 | 73 | 1009.2 |
| 20260505061204 | 13 | 355 | 0.0 | 0.0 | 0.00 | 0.00 | 0.00 | 73 | 1009.4 |
| 20260505060704 | 13 | 355 | 0.0 | 0.0 | 0.00 | 0.00 | 0.00 | 74 | 1009.3 |
| 20260505060204 | 13 | 355 | 0.0 | 0.0 | 0.00 | 0.00 | 0.00 | 76 | 1009.3 |
| 20260505055704 | 13 | 355 | 0.0 | 0.0 | 0.00 | 0.00 | 0.00 | 75 | 1009.3 |
| 20260505055204 | 14 | 355 | 0.0 | 0.0 | 0.00 | 0.00 | 0.00 | 72 | 1009.3 |
| 20260505054705 | 14 | 355 | 0.0 | 0.0 | 0.00 | 0.00 | 0.00 | 72 | 1009.1 |
| 20260505054204 | 15 | 355 | 0.0 | 0.0 | 0.00 | 0.00 | 0.00 | 72 | 1009.2 |
| 20260505052704 | 14 | 355 | 0.0 | 0.0 | 0.00 | 0.00 | 0.00 | 70 | 1009.2 |
| 20260505052204 | 14 | 355 | 0.0 | 0.0 | 0.00 | 0.00 | 0.00 | 72 | 1009.2 |
| 20260505051704 | 14 | 355 | 0.0 | 0.0 | 0.00 | 0.00 | 0.00 | 72 | 1009.2 |
| 20260505051205 | 14 | 355 | 0.0 | 0.0 | 0.00 | 0.00 | 0.00 | 69 | 1009.2 |
| 20260505050204 | 14 | 355 | 0.0 | 0.0 | 0.00 | 0.00 | 0.00 | 68 | 1009.3 |
| 20260505041704 | 14 | 355 | 1.6 | 3.2 | 0.00 | 0.00 | 0.00 | 72 | 1009.0 |
| 20260505041204 | 14 | 355 | 0.0 | 0.0 | 0.00 | 0.00 | 0.00 | 73 | 1009.0 |
| 20260505040705 | 14 | 355 | 0.0 | 0.0 | 0.00 | 0.00 | 0.00 | 72 | 1009.0 |
| 20260505040204 | 14 | 355 | 0.0 | 0.0 | 0.00 | 0.00 | 0.00 | 71 | 1008.9 |
| 20260505035704 | 14 | 355 | 0.0 | 0.0 | 0.00 | 0.00 | 0.00 | 69 | 1008.8 |
| 20260505035204 | 13 | 355 | 0.0 | 0.0 | 0.00 | 0.00 | 0.00 | 72 | 1008.8 |
| 20260505034706 | 13 | 355 | 0.0 | 0.0 | 0.00 | 0.00 | 0.00 | 70 | 1008.8 |
| 20260505034205 | 14 | 355 | 0.0 | 0.0 | 0.00 | 0.00 | 0.00 | 67 | 1008.9 |
| 20260505033705 | 13 | 355 | 0.0 | 0.0 | 0.00 | 0.00 | 0.00 | 68 | 1008.9 |
| 20260505033205 | 13 | 355 | 0.0 | 0.0 | 0.00 | 0.00 | 0.00 | 68 | 1008.8 |
| 20260505032705 | 13 | 355 | 0.0 | 0.0 | 0.00 | 0.00 | 0.00 | 68 | 1008.8 |
| 20260505032205 | 14 | 355 | 0.0 | 0.0 | 0.00 | 0.00 | 0.00 | 67 | 1008.7 |
| 20260505031205 | 15 | 355 | 0.0 | 0.0 | 0.00 | 0.00 | 0.00 | 64 | 1008.8 |
| 20260505030705 | 15 | 355 | 0.0 | 3.2 | 0.00 | 0.00 | 0.00 | 63 | 1008.8 |
| 20260505030205 | 15 | 355 | 0.0 | 3.2 | 0.00 | 0.00 | 0.00 | 64 | 1008.9 |
| 20260505025205 | 16 | 355 | 1.6 | 1.6 | 0.00 | 0.00 | 0.00 | 62 | 1008.9 |
| 20260505024706 | 15 | 355 | 1.6 | 1.6 | 0.00 | 0.00 | 0.00 | 62 | 1008.9 |
| 20260505024205 | 16 | 355 | 1.6 | 1.6 | 0.00 | 0.00 | 0.00 | 63 | 1008.9 |
| 20260505023705 | 16 | 355 | 1.6 | 3.2 | 0.00 | 0.00 | 0.00 | 63 | 1008.8 |
| 20260505023204 | 16 | 355 | 1.6 | 3.2 | 0.00 | 0.00 | 0.00 | 63 | 1008.8 |
| 20260505022705 | 16 | 355 | 0.0 | 3.2 | 0.00 | 0.00 | 0.00 | 63 | 1008.8 |
| 20260505022205 | 16 | 355 | 1.6 | 1.6 | 0.00 | 0.00 | 0.00 | 63 | 1008.5 |
| 20260505020705 | 15 | 355 | 0.0 | 3.2 | 0.00 | 0.00 | 0.00 | 64 | 1008.6 |
| 20260505020205 | 16 | 355 | 0.0 | 3.2 | 0.00 | 0.00 | 0.00 | 63 | 1008.7 |
| 20260505015705 | 16 | 355 | 1.6 | 3.2 | 0.00 | 0.00 | 0.00 | 63 | 1008.8 |
| 20260505015205 | 16 | 355 | 1.6 | 1.6 | 0.00 | 0.00 | 0.00 | 63 | 1008.7 |
| 20260505014205 | 16 | 355 | 1.6 | 3.2 | 0.00 | 0.00 | 0.00 | 62 | 1008.6 |
| 20260505013705 | 16 | 355 | 0.0 | 0.0 | 0.00 | 0.00 | 0.00 | 62 | 1008.6 |
| 20260505013207 | 15 | 355 | 0.0 | 3.2 | 0.00 | 0.00 | 0.00 | 62 | 1008.6 |
| 20260505012205 | 16 | 5 | 0.0 | 3.2 | 0.00 | 0.00 | 0.00 | 63 | 1008.4 |
| 20260505011705 | 16 | 5 | 1.6 | 1.6 | 0.00 | 0.00 | 0.00 | 61 | 1008.4 |
| 20260505011205 | 16 | 5 | 1.6 | 3.2 | 0.00 | 0.00 | 0.00 | 60 | 1008.4 |
| 20260505010705 | 16 | 5 | 1.6 | 3.2 | 0.00 | 0.00 | 0.00 | 60 | 1008.4 |
| 20260505005705 | 16 | 5 | 1.6 | 3.2 | 0.00 | 0.00 | 0.00 | 61 | 1008.4 |
| 20260505005205 | 17 | 5 | 1.6 | 3.2 | 0.00 | 0.00 | 0.00 | 61 | 1008.3 |
| 20260505004705 | 17 | 5 | 0.0 | 3.2 | 0.00 | 0.00 | 0.00 | 60 | 1008.2 |
| 20260505004205 | 17 | 5 | 0.0 | 1.6 | 0.00 | 0.00 | 0.00 | 60 | 1008.1 |
| 20260505003704 | 17 | 5 | 1.6 | 1.6 | 0.00 | 0.00 | 0.00 | 59 | 1008.0 |
| 20260505003205 | 17 | 5 | 1.6 | 3.2 | 0.00 | 0.00 | 0.00 | 58 | 1008.1 |
| 20260505002705 | 17 | 5 | 1.6 | 3.2 | 0.00 | 0.00 | 0.00 | 58 | 1008.0 |
| 20260505002204 | 17 | 5 | 0.0 | 0.0 | 0.00 | 0.00 | 0.00 | 60 | 1007.9 |
| 20260505001705 | 18 | 5 | 1.6 | 3.2 | 0.00 | 0.00 | 0.00 | 58 | 1007.9 |
| 20260505001205 | 17 | 5 | 1.6 | 1.6 | 0.00 | 0.00 | 0.00 | 58 | 1007.9 |
| 20260505000705 | 18 | 5 | 1.6 | 4.8 | 0.00 | 0.00 | 0.00 | 56 | 1007.9 |
| 20260505000204 | 18 | 211 | 1.6 | 4.8 | 0.00 | 0.00 | 0.00 | 56 | 1007.9 |
| 20260504235704 | 18 | 178 | 0.0 | 3.2 | 0.00 | 0.00 | 0.00 | 56 | 1007.8 |
| 20260504235205 | 18 | 178 | 1.6 | 3.2 | 0.00 | 0.00 | 0.00 | 56 | 1007.8 |
| 20260504234705 | 20 | 173 | 1.6 | 9.7 | 0.00 | 0.00 | 0.00 | 52 | 1007.8 |
| 20260504234204 | 19 | 203 | 1.6 | 4.8 | 0.00 | 0.00 | 0.00 | 54 | 1007.8 |
| 20260504233705 | 20 | 203 | 1.6 | 4.8 | 0.00 | 0.00 | 0.00 | 52 | 1007.7 |
| 20260504233204 | 21 | 202 | 4.8 | 9.7 | 0.00 | 0.00 | 0.00 | 47 | 1007.7 |
| 20260504232704 | 21 | 177 | 3.2 | 9.7 | 0.00 | 0.00 | 0.00 | 46 | 1007.6 |
| 20260504231704 | 21 | 182 | 4.8 | 14.5 | 0.00 | 0.00 | 0.00 | 45 | 1007.7 |
| 20260504231204 | 21 | 154 | 4.8 | 9.7 | 0.00 | 0.00 | 0.00 | 43 | 1007.7 |
| 20260504230704 | 22 | 184 | 4.8 | 12.9 | 0.00 | 0.00 | 0.00 | 42 | 1007.7 |
| 20260504230205 | 22 | 191 | 4.8 | 19.3 | 0.00 | 0.00 | 0.00 | 42 | 1007.8 |
| 20260504225205 | 22 | 211 | 4.8 | 19.3 | 0.00 | 0.00 | 0.00 | 42 | 1007.7 |
| 20260504224705 | 22 | 195 | 4.8 | 19.3 | 0.00 | 0.00 | 0.00 | 41 | 1007.7 |
| 20260504224204 | 22 | 183 | 4.8 | 19.3 | 0.00 | 0.00 | 0.00 | 42 | 1007.7 |
| 20260504223705 | 22 | 186 | 11.3 | 29.0 | 0.00 | 0.00 | 0.00 | 41 | 1007.7 |
| 20260504223204 | 22 | 185 | 4.8 | 22.5 | 0.00 | 0.00 | 0.00 | 41 | 1007.7 |
| 20260504222705 | 22 | 188 | 9.7 | 24.1 | 0.00 | 0.00 | 0.00 | 40 | 1007.7 |
| 20260504222204 | 22 | 186 | 9.7 | 20.9 | 0.00 | 0.00 | 0.00 | 39 | 1007.8 |
| 20260504221705 | 23 | 190 | 9.7 | 22.5 | 0.00 | 0.00 | 0.00 | 40 | 1007.8 |
| 20260504221204 | 23 | 187 | 9.7 | 22.5 | 0.00 | 0.00 | 0.00 | 39 | 1007.8 |
| 20260504220705 | 23 | 173 | 4.8 | 14.5 | 0.00 | 0.00 | 0.00 | 40 | 1007.8 |
| 20260504215704 | 23 | 194 | 6.4 | 14.5 | 0.00 | 0.00 | 0.00 | 40 | 1007.8 |
| 20260504215204 | 23 | 178 | 3.2 | 24.1 | 0.00 | 0.00 | 0.00 | 39 | 1007.8 |
| 20260504214704 | 23 | 217 | 4.8 | 11.3 | 0.00 | 0.00 | 0.00 | 39 | 1007.7 |
| 20260504214204 | 23 | 212 | 11.3 | 20.9 | 0.00 | 0.00 | 0.00 | 40 | 1007.7 |
| 20260504213704 | 23 | 200 | 8.0 | 16.1 | 0.00 | 0.00 | 0.00 | 39 | 1007.7 |
| 20260504212704 | 24 | 161 | 3.2 | 12.9 | 0.00 | 0.00 | 0.00 | 37 | 1007.7 |
| 20260504212204 | 24 | 180 | 8.0 | 19.3 | 0.00 | 0.00 | 0.00 | 36 | 1007.7 |
| 20260504211704 | 24 | 181 | 8.0 | 19.3 | 0.00 | 0.00 | 0.00 | 34 | 1007.7 |
| 20260504211204 | 24 | 217 | 4.8 | 14.5 | 0.00 | 0.00 | 0.00 | 35 | 1007.6 |
| 20260504210704 | 24 | 196 | 4.8 | 20.9 | 0.00 | 0.00 | 0.00 | 36 | 1007.6 |
| 20260504210205 | 24 | 210 | 3.2 | 12.9 | 0.00 | 0.00 | 0.00 | 34 | 1007.6 |
| 20260504205705 | 24 | 240 | 8.0 | 16.1 | 0.00 | 0.00 | 0.00 | 35 | 1007.6 |
| 20260504205205 | 25 | 203 | 4.8 | 12.9 | 0.00 | 0.00 | 0.00 | 34 | 1007.7 |
| 20260504204704 | 24 | 195 | 3.2 | 11.3 | 0.00 | 0.00 | 0.00 | 36 | 1007.6 |
| 20260504204204 | 24 | 203 | 3.2 | 11.3 | 0.00 | 0.00 | 0.00 | 34 | 1007.7 |
| 20260504203704 | 24 | 263 | 4.8 | 11.3 | 0.00 | 0.00 | 0.00 | 33 | 1007.7 |
| 20260504203204 | 24 | 263 | 4.8 | 11.3 | 0.00 | 0.00 | 0.00 | 34 | 1007.8 |
| 20260504202705 | 24 | 315 | 8.0 | 12.9 | 0.00 | 0.00 | 0.00 | 35 | 1007.9 |
| 20260504202204 | 25 | 219 | 8.0 | 16.1 | 0.00 | 0.00 | 0.00 | 35 | 1008.1 |
| 20260504201704 | 24 | 243 | 4.8 | 16.1 | 0.00 | 0.00 | 0.00 | 35 | 1008.1 |
| 20260504201205 | 24 | 214 | 3.2 | 11.3 | 0.00 | 0.00 | 0.00 | 34 | 1008.1 |
| 20260504200705 | 24 | 241 | 4.8 | 14.5 | 0.00 | 0.00 | 0.00 | 35 | 1008.3 |
| 20260504195704 | 25 | 236 | 3.2 | 19.3 | 0.00 | 0.00 | 0.00 | 37 | 1008.4 |
| 20260504195204 | 25 | 198 | 1.6 | 8.0 | 0.00 | 0.00 | 0.00 | 35 | 1008.4 |